When you browse on this site, cookies collect data to enhance your experience and personalize the content and advertising you see.
Visit our Privacy Policy to learn more. By continuing to use the site, you agree to this use of cookies and data.
  • In Österreich
  • Länderverzeichnis
  • Für 7 Tage
  • Wassertemperatur
  • Satellitenkarten
  • Wetterkarte
  • News
  • Widgets
  • user-avatar
    Anmelden

    Stündliche Wetter Cranford

    Heute, 22 April, Montag

    Zeit Temperatur Niederschläge Wind Luftdruck Luftfeuchtigkeit
    00:00 +14°C° 0 mm 2 m/S 762 mmHg 69%
    01:00 +14°C° 0 mm 2 m/S 762 mmHg 70%
    02:00 +14°C° 0 mm 2 m/S 762 mmHg 71%
    03:00 +13°C° 0 mm 2 m/S 762 mmHg 72%
    04:00 +13°C° 0 mm 2 m/S 762 mmHg 74%
    05:00 +13°C° 0.1 mm 2 m/S 762 mmHg 76%
    06:00 +14°C° 0.1 mm 2 m/S 762 mmHg 78%
    07:00 +14°C° 0.1 mm 2 m/S 761 mmHg 79%
    08:00 +14°C° 0 mm 3 m/S 761 mmHg 74%
    09:00 +17°C° 0 mm 4 m/S 761 mmHg 69%
    10:00 +18°C° 0 mm 4 m/S 761 mmHg 63%
    11:00 +19°C° 0.1 mm 4 m/S 761 mmHg 60%
    12:00 +20°C° 0.1 mm 4 m/S 760 mmHg 56%
    13:00 +21°C° 0.1 mm 4 m/S 760 mmHg 53%
    14:00 +21°C° 0.6 mm 3 m/S 759 mmHg 55%
    15:00 +21°C° 0.6 mm 3 m/S 759 mmHg 56%
    16:00 +21°C° 0.6 mm 3 m/S 759 mmHg 58%
    17:00 +20°C° 1.1 mm 2 m/S 759 mmHg 63%
    18:00 +19°C° 1.1 mm 2 m/S 759 mmHg 68%
    19:00 +18°C° 1.1 mm 2 m/S 759 mmHg 73%
    20:00 +18°C° 0.1 mm 2 m/S 759 mmHg 75%
    21:00 +17°C° 0.1 mm 2 m/S 760 mmHg 76%
    22:00 +17°C° 0.1 mm 2 m/S 760 mmHg 77%
    23:00 +16°C° 0 mm 2 m/S 760 mmHg 79%

    Morgen, 23 April, Dienstag

    Zeit Temperatur Niederschläge Wind Luftdruck Luftfeuchtigkeit
    00:00 +16°C° 0 mm 2 m/S 760 mmHg 80%
    01:00 +15°C° 0 mm 2 m/S 760 mmHg 82%
    02:00 +15°C° 0 mm 2 m/S 760 mmHg 82%
    03:00 +15°C° 0 mm 2 m/S 760 mmHg 83%
    04:00 +15°C° 0 mm 2 m/S 760 mmHg 83%
    05:00 +15°C° 0 mm 1 m/S 760 mmHg 80%
    06:00 +16°C° 0 mm 1 m/S 761 mmHg 77%
    07:00 +16°C° 0 mm 1 m/S 761 mmHg 73%
    08:00 +19°C° 0 mm 1 m/S 761 mmHg 65%
    09:00 +21°C° 0 mm 1 m/S 760 mmHg 58%
    10:00 +23°C° 0 mm 1 m/S 760 mmHg 50%
    11:00 +24°C° 0 mm 1 m/S 760 mmHg 46%
    12:00 +25°C° 0 mm 2 m/S 759 mmHg 43%
    13:00 +26°C° 0 mm 2 m/S 759 mmHg 39%
    14:00 +26°C° 0 mm 3 m/S 758 mmHg 38%
    15:00 +26°C° 0 mm 3 m/S 757 mmHg 38%
    16:00 +27°C° 0 mm 3 m/S 757 mmHg 37%
    17:00 +25°C° 0 mm 3 m/S 757 mmHg 42%
    18:00 +24°C° 0 mm 3 m/S 756 mmHg 48%
    19:00 +22°C° 0 mm 4 m/S 756 mmHg 53%
    20:00 +21°C° 0.2 mm 4 m/S 756 mmHg 56%
    21:00 +20°C° 0.2 mm 4 m/S 756 mmHg 60%
    22:00 +20°C° 0.2 mm 4 m/S 755 mmHg 63%
    23:00 +20°C° 1 mm 4 m/S 755 mmHg 63%

    übermorgen, 24 April, Mittwoch

    Zeit Temperatur Niederschläge Wind Luftdruck Luftfeuchtigkeit
    00:00 +19°C° 1 mm 4 m/S 754 mmHg 63%
    01:00 +19°C° 1 mm 4 m/S 753 mmHg 63%
    02:00 +19°C° 0.6 mm 4 m/S 753 mmHg 69%
    03:00 +18°C° 0.6 mm 4 m/S 753 mmHg 75%
    04:00 +18°C° 0.6 mm 4 m/S 752 mmHg 82%
    05:00 +17°C° 0 mm 5 m/S 753 mmHg 76%
    06:00 +16°C° 0 mm 5 m/S 753 mmHg 71%
    07:00 +16°C° 0 mm 6 m/S 753 mmHg 66%
    08:00 +16°C° 0 mm 6 m/S 754 mmHg 59%
    09:00 +16°C° 0 mm 5 m/S 754 mmHg 51%
    10:00 +16°C° 0 mm 5 m/S 754 mmHg 44%
    11:00 +17°C° 0 mm 5 m/S 754 mmHg 42%
    12:00 +19°C° 0 mm 6 m/S 754 mmHg 40%
    13:00 +19°C° 0 mm 6 m/S 754 mmHg 37%
    14:00 +19°C° 0 mm 5 m/S 754 mmHg 37%
    15:00 +20°C° 0 mm 5 m/S 754 mmHg 37%
    16:00 +20°C° 0 mm 5 m/S 754 mmHg 36%
    17:00 +19°C° 0 mm 5 m/S 755 mmHg 39%
    18:00 +18°C° 0 mm 4 m/S 755 mmHg 42%
    19:00 +17°C° 0 mm 4 m/S 756 mmHg 45%
    20:00 +15°C° 0 mm 4 m/S 756 mmHg 48%
    21:00 +14°C° 0 mm 4 m/S 757 mmHg 50%
    22:00 +13°C° 0 mm 4 m/S 757 mmHg 53%
    23:00 +12°C° 0 mm 4 m/S 757 mmHg 54%

    25 April, Donnerstag

    Zeit Temperatur Niederschläge Wind Luftdruck Luftfeuchtigkeit
    00:00 +11°C° 0 mm 4 m/S 757 mmHg 56%
    01:00 +11°C° 0 mm 4 m/S 757 mmHg 57%
    02:00 +10°C° 0 mm 4 m/S 758 mmHg 58%
    03:00 +10°C° 0 mm 4 m/S 758 mmHg 59%
    04:00 +9°C° 0 mm 3 m/S 758 mmHg 60%
    05:00 +10°C° 0 mm 3 m/S 758 mmHg 59%
    06:00 +10°C° 0 mm 3 m/S 758 mmHg 58%
    07:00 +10°C° 0 mm 3 m/S 759 mmHg 56%
    08:00 +12°C° 0 mm 3 m/S 759 mmHg 50%
    09:00 +14°C° 0 mm 3 m/S 759 mmHg 44%
    10:00 +17°C° 0 mm 3 m/S 759 mmHg 38%
    11:00 +18°C° 0 mm 3 m/S 758 mmHg 35%
    12:00 +20°C° 0 mm 3 m/S 758 mmHg 33%
    13:00 +21°C° 0 mm 3 m/S 757 mmHg 30%
    14:00 +22°C° 0 mm 3 m/S 757 mmHg 30%
    15:00 +22°C° 0 mm 3 m/S 756 mmHg 30%
    16:00 +22°C° 0 mm 3 m/S 756 mmHg 30%
    17:00 +21°C° 0 mm 3 m/S 756 mmHg 33%
    18:00 +20°C° 0 mm 3 m/S 756 mmHg 35%
    19:00 +19°C° 0 mm 3 m/S 756 mmHg 38%
    20:00 +19°C° 0 mm 3 m/S 756 mmHg 39%
    21:00 +18°C° 0 mm 3 m/S 756 mmHg 39%
    22:00 +17°C° 0 mm 3 m/S 757 mmHg 40%
    23:00 +17°C° 0 mm 3 m/S 756 mmHg 41%

    26 April, Freitag

    Zeit Temperatur Niederschläge Wind Luftdruck Luftfeuchtigkeit
    00:00 +16°C° 0 mm 3 m/S 756 mmHg 43%
    01:00 +16°C° 0 mm 2 m/S 755 mmHg 44%
    02:00 +16°C° 0 mm 2 m/S 755 mmHg 44%
    03:00 +15°C° 0 mm 2 m/S 755 mmHg 44%
    04:00 +15°C° 0 mm 2 m/S 754 mmHg 43%
    05:00 +15°C° 0 mm 2 m/S 755 mmHg 45%
    06:00 +16°C° 0 mm 2 m/S 755 mmHg 46%
    07:00 +16°C° 0 mm 2 m/S 755 mmHg 48%
    08:00 +16°C° 0.1 mm 2 m/S 755 mmHg 53%
    09:00 +17°C° 0.1 mm 2 m/S 755 mmHg 59%
    10:00 +17°C° 0.1 mm 2 m/S 755 mmHg 65%
    11:00 +18°C° 0.2 mm 2 m/S 754 mmHg 60%
    12:00 +19°C° 0.2 mm 2 m/S 754 mmHg 56%
    13:00 +20°C° 0.2 mm 2 m/S 754 mmHg 52%
    14:00 +21°C° 0.2 mm 3 m/S 754 mmHg 48%
    15:00 +21°C° 0.2 mm 4 m/S 754 mmHg 44%
    16:00 +21°C° 0.2 mm 4 m/S 754 mmHg 40%
    17:00 +20°C° 0 mm 4 m/S 755 mmHg 42%
    18:00 +19°C° 0 mm 4 m/S 755 mmHg 45%
    19:00 +18°C° 0 mm 4 m/S 756 mmHg 47%
    20:00 +17°C° 0 mm 4 m/S 757 mmHg 49%
    21:00 +15°C° 0 mm 4 m/S 757 mmHg 50%
    22:00 +15°C° 0 mm 4 m/S 758 mmHg 52%
    23:00 +14°C° 0 mm 3 m/S 758 mmHg 52%

    27 April, Samstag

    Zeit Temperatur Niederschläge Wind Luftdruck Luftfeuchtigkeit
    00:00 +13°C° 0 mm 3 m/S 758 mmHg 52%
    01:00 +13°C° 0 mm 3 m/S 758 mmHg 52%
    02:00 +12°C° 0 mm 3 m/S 758 mmHg 52%
    03:00 +12°C° 0 mm 3 m/S 758 mmHg 53%
    04:00 +11°C° 0 mm 3 m/S 758 mmHg 54%
    05:00 +12°C° 0 mm 3 m/S 759 mmHg 51%
    06:00 +12°C° 0 mm 3 m/S 759 mmHg 48%
    07:00 +12°C° 0 mm 4 m/S 759 mmHg 44%
    08:00 +14°C° 0 mm 4 m/S 759 mmHg 40%
    09:00 +15°C° 0 mm 5 m/S 759 mmHg 36%
    10:00 +17°C° 0 mm 5 m/S 759 mmHg 32%
    11:00 +19°C° 0 mm 5 m/S 759 mmHg 28%
    12:00 +20°C° 0 mm 5 m/S 758 mmHg 24%
    13:00 +20°C° 0 mm 5 m/S 758 mmHg 19%
    14:00 +20°C° 0 mm 5 m/S 758 mmHg 20%
    15:00 +20°C° 0 mm 5 m/S 758 mmHg 20%
    16:00 +20°C° 0 mm 4 m/S 758 mmHg 21%
    17:00 +19°C° 0 mm 4 m/S 758 mmHg 23%
    18:00 +18°C° 0 mm 3 m/S 758 mmHg 26%
    19:00 +17°C° 0 mm 2 m/S 759 mmHg 29%
    20:00 +17°C° 0 mm 2 m/S 759 mmHg 30%
    21:00 +16°C° 0 mm 2 m/S 760 mmHg 32%
    22:00 +16°C° 0 mm 2 m/S 760 mmHg 33%
    23:00 +15°C° 0 mm 2 m/S 760 mmHg 34%
    Mehr zeigen